Rechercher aéroport 
image banner adimage banner ad
image banner ad

DAAV - Jijel / Ferhat Abbas

Situé à Jijel, Algeria

ICAO - DAAV, IATA - GJL

Données fournies par Airmate  

Information générale

Coordonnées: N36°47'40" E5°52'25"
Élévation : 36 feet MSL.
 
Voir autres Aéroports à Jijel Province

Données opérationnelles

Accessible au public
Heure actuelle UTC:
Heure actuelle locale:
Météo
METAR: DAAV 230000Z 15003KT CAVOK 18/13 Q1016
TAF: TAF DAAV 222300Z 2300/2324 17005KT CAVOK PROB40 2303/2318 FEW023TCU FEW026CB BECMG 2311/2314 32010KT PROB30 TEMPO 2316/2324 5000 -TSRA FEW023CB BECMG 2319/2322 25008KT
Voir NOTAMs / SUP AIP / TFR affectant cet aéroport [VIEW]
Fréquences de communication: [VIEW]

Pistes:

Identifiant RWYQFULongueur (ft)Largeur (ft)SurfaceLDA (ft)
17171°7874148ASP
35351°7874148

Coordonnées de l'aéroport

Adresse: Jijel Algeria

Vue satellite de DAAV